[[{"header":{"parameterUnit":"m.s-1","parameterCategory":1,"la1":30.2991,"la2":30.254,"lo1":-89.0895,"lo2":-89.0444,"dy":0.0017,"dx":0.0017,"nx":28,"ny":28,"refTime":"2025-01-11T09:00:00:Z","depth":0,"parameterNumber":2,"parameterNumberName":"U-component_of_WINDS"},"data":[0,0,0,0,0,0,0,0,0,0,0,0,0,0,0,0,0,0,0,0,0,0,0,0,0,0,0,0,0,0,0,0,0,0,0,0,0,0,0,0,0,0,0,0,0,0,0,0,0,0,0,0,0,0,0,0,0,0,2.715,2.715,0,2.715,2.715,2.715,2.7109,2.7108,2.7107,2.7106,2.7106,2.7107,2.7108,0,0,0,0,0,0,0,0,0,0,0,0,0,2.7113,2.7114,2.715,2.715,2.715,2.715,2.715,2.715,2.7109,2.7108,2.7107,2.7105,2.7105,2.7107,2.7108,0,0,0,0,0,0,0,0,0,0,0,0,0,2.7123,2.7114,2.715,2.7129,2.7127,2.715,2.715,2.715,2.7109,2.7108,2.7106,2.7105,2.7105,2.7107,2.7108,2.715,0,0,2.7113,2.7113,0,0,0,0,0,0,0,0,2.7122,2.7124,2.7132,2.7131,2.7129,2.7128,2.7137,2.715,2.711,2.7116,2.7106,2.7104,2.7114,2.7115,2.7119,2.715,2.715,2.7113,2.7114,2.7114,2.7115,0,0,0,0,0,0,0,2.7122,2.7124,2.715,2.7132,2.713,2.712,2.712,2.7139,2.7124,2.7116,2.7113,2.7113,2.7113,2.7117,2.7118,2.715,2.7113,2.7114,2.7115,2.7116,2.7216,2.7218,0,0,0,0,0,0,2.7124,2.7124,2.715,2.715,2.7121,2.7122,2.7122,2.713,2.7124,2.7122,2.7115,2.7111,2.7116,2.7117,2.7118,2.7167,2.7114,2.7116,2.7117,2.7215,2.7217,2.7219,0,0,0,0,0,0,2.7123,2.7127,2.715,2.7136,2.7138,2.7124,2.7134,2.7131,2.7135,2.7123,2.7121,2.7122,2.7114,2.7116,2.7143,2.7166,2.7116,2.7118,2.7213,2.7215,2.7218,2.7265,0,0,0,0,0,0,2.7122,2.7127,2.7142,2.7137,2.7139,2.7174,2.7135,2.7132,2.7138,2.7133,2.7129,2.7127,2.7113,2.7141,2.7144,2.7168,2.7119,2.721,2.7214,2.7217,2.7261,2.7269,2.7275,0,0,0,0,0,2.7121,2.7155,2.7143,2.7147,2.7158,2.7176,2.7177,2.716,2.714,2.7155,2.7148,2.7127,2.7164,2.7144,2.7147,2.7172,2.7209,2.7213,2.7217,2.7258,2.7267,2.7275,0,0,0,0,0,0,2.7163,2.7154,2.7141,2.7174,2.7176,2.7169,2.7188,2.7171,2.7178,2.7174,2.7153,2.7153,2.7182,2.718,2.7158,2.7212,2.7182,2.7187,2.7213,2.7221,2.7229,2.7228,2.712,0,0,0,0,0,2.7177,2.7192,2.7183,2.7213,2.7215,2.7201,2.7208,2.7196,2.7197,2.7197,2.7192,2.7194,2.7205,2.7213,2.7224,2.7261,2.726,2.728,2.7287,2.7293,2.7297,2.7317,2.7325,2.7232,2.7232,2.7232,0,0,2.7204,2.7201,2.7211,2.7221,2.7221,2.7237,2.7202,2.722,2.7232,2.72,2.7224,2.7221,2.7221,2.7254,2.7268,2.7252,2.7323,2.7298,2.7303,2.7304,2.7322,2.7331,2.7338,2.7234,2.7234,2.7234,0,0,2.7262,2.7261,2.7286,2.7288,2.7288,2.7279,2.7286,2.7281,2.7278,2.7302,2.7279,2.7292,2.7313,2.7314,2.7318,2.7378,2.7359,2.7382,2.7419,2.7438,2.7446,2.7452,2.7473,2.7481,2.7387,2.7387,2.7387,0,2.7296,2.7318,2.7301,2.7321,2.7326,2.7299,2.7325,2.7326,2.733,2.7335,2.7318,2.7344,2.7342,2.7374,2.7389,2.7393,2.7399,2.7382,2.7446,2.7452,2.7458,2.7478,2.7486,2.7389,2.7389,2.7389,2.7389,0,2.736,2.7376,2.7397,2.7402,2.7409,2.7432,2.7418,2.7428,2.7416,2.7409,2.7434,2.7432,2.7441,2.7448,2.7435,2.7479,2.7469,2.745,2.7419,2.747,2.7488,2.7496,2.7393,2.7392,2.7392,2.7391,0,0,2.7442,2.7439,2.7447,2.7449,2.7449,2.7461,2.7483,2.7492,2.7501,2.7505,2.7523,2.7542,2.7524,2.7528,2.7516,2.7533,2.758,2.7511,2.7511,2.7523,2.7628,2.7642,2.7651,2.7568,2.757,2.7571,2.7627,0,2.7498,2.7535,2.7521,2.7559,2.7574,2.7549,2.7568,2.757,2.7564,2.7576,2.757,2.7583,2.7559,2.7561,2.7578,2.7571,2.7601,2.7567,2.7584,2.7585,2.7583,2.766,2.7675,2.7728,2.7634,2.7636,2.7637,0,2.7567,2.7575,2.7615,2.7612,2.7618,2.7635,2.7643,2.7655,2.7657,2.7652,2.7657,2.7641,2.7663,2.7633,2.7662,2.764,2.7646,2.7644,2.7646,2.7646,2.7613,2.7661,2.7745,2.7753,2.7648,2.7647,2.7646,0,2.7623,2.7643,2.767,2.7673,2.7671,2.7683,2.7683,2.7683,2.769,2.7698,2.7702,2.7712,2.7717,2.7724,2.7712,2.7692,2.7742,2.7712,2.7738,2.7738,2.7749,2.7748,2.7833,2.7755,2.7755,2.7755,2.7754,0,2.7686,2.7711,2.7695,2.7711,2.7738,2.7722,2.775,2.7747,2.7748,2.7763,2.7742,2.7757,2.7739,2.7752,2.7743,2.7768,2.777,2.7767,2.7763,2.7768,2.7768,2.7771,2.7766,2.7757,2.7756,2.7756,2.7755,0,2.7752,2.7742,2.7769,2.7766,2.7766,2.7786,2.7783,2.7797,2.7791,2.7811,2.7814,2.7804,2.7818,2.7807,2.7821,2.7814,2.7847,2.784,2.7847,2.7844,2.7871,2.7868,2.796,2.7971,2.7886,2.7887,2.7888,0,2.7792,2.7811,2.781,2.7819,2.782,2.7835,2.7842,2.7827,2.7836,2.784,2.7854,2.7867,2.7876,2.79,2.7894,2.7904,2.7896,2.7928,2.7897,2.7901,2.7896,2.7894,2.7896,2.7933,2.7934,2.7935,2.7936,0,2.7864,2.7859,2.787,2.7881,2.789,2.7897,2.7903,2.7911,2.7896,2.7907,2.7921,2.7929,2.7943,2.7956,2.7965,2.7964,2.7948,2.7946,2.7952,2.7956,2.7959,2.7957,2.7862,2.7943,2.7942,2.7942,2.7941,2.7941,2.7918,2.7934,2.7936,2.7949,2.7952,2.7958,2.7972,2.7968,2.798,2.7991,2.7982,2.7999,2.8001,2.8011,2.8013,2.8027,2.8013,2.8023,2.8025,2.8027,2.8031,2.7958,2.8028,2.8028,2.8028,2.8028,2.8027,0,2.7989,2.7989,2.8002,2.8011,2.8022,2.8006,2.8011,2.8021,2.8037,2.8041,2.8051,2.8068,2.808,2.8076,2.8087,2.8098,2.8091,2.8102,2.81,2.81,2.8042,2.8035,2.8107,2.8107,2.8107,2.8107,2.8107,2.8107,2.8027,2.8052,2.8047,2.8074,2.8074,2.8092,2.8096,2.8102,2.8104,2.8124,2.8135,2.8132,2.8133,2.8144,2.8155,2.8153,2.8157,2.8171,2.8166,2.8112,2.8104,2.8097,2.809,2.8172,2.8172,2.8223,2.8223,2.8224]},{"header":{"parameterUnit":"m.s-1","parameterCategory":1,"la1":30.2991,"la2":30.254,"lo1":-89.0895,"lo2":-89.0444,"dy":0.0017,"dx":0.0017,"nx":28,"ny":28,"refTime":"2025-01-11T09:00:00:Z","depth":0,"parameterNumber":3,"parameterNumberName":"V-component_of_WINDS"},"data":[0,0,0,0,0,0,0,0,0,0,0,0,0,0,0,0,0,0,0,0,0,0,0,0,0,0,0,0,0,0,0,0,0,0,0,0,0,0,0,0,0,0,0,0,0,0,0,0,0,0,0,0,0,0,0,0,0,0,-5.3329,-5.3331,0,-5.3492,-5.3493,-5.3495,-5.3467,-5.3465,-5.3462,-5.3459,-5.3624,-5.3631,-5.3638,0,0,0,0,0,0,0,0,0,0,0,0,0,-5.2993,-5.2999,-5.3329,-5.3331,-5.3333,-5.3491,-5.3494,-5.3496,-5.3468,-5.3464,-5.3461,-5.3458,-5.3621,-5.363,-5.3638,0,0,0,0,0,0,0,0,0,0,0,0,0,-5.3146,-5.3001,-5.3328,-5.3338,-5.3341,-5.3491,-5.3494,-5.3496,-5.3469,-5.3464,-5.346,-5.3456,-5.3619,-5.3629,-5.3639,-5.379,0,0,-5.3672,-5.3676,0,0,0,0,0,0,0,0,-5.3137,-5.3158,-5.3335,-5.3338,-5.3341,-5.3455,-5.3435,-5.3595,-5.347,-5.342,-5.3459,-5.3454,-5.3571,-5.3585,-5.3625,-5.3797,-5.3804,-5.3672,-5.3679,-5.3683,-5.3686,0,0,0,0,0,0,0,-5.3126,-5.3151,-5.3393,-5.3337,-5.3341,-5.3334,-5.3351,-5.3465,-5.3517,-5.3424,-5.3422,-5.3442,-5.3572,-5.3615,-5.3629,-5.3807,-5.3672,-5.3682,-5.3688,-5.3692,-5.4111,-5.4116,0,0,0,0,0,0,-5.3113,-5.3142,-5.3388,-5.3398,-5.3226,-5.3344,-5.3362,-5.3423,-5.3516,-5.3526,-5.3446,-5.344,-5.3599,-5.3616,-5.3634,-5.3817,-5.3683,-5.3693,-5.3699,-5.4107,-5.4112,-5.4118,0,0,0,0,0,0,-5.3106,-5.3135,-5.3381,-5.327,-5.3301,-5.3354,-5.3422,-5.3428,-5.3471,-5.3532,-5.3541,-5.348,-5.3596,-5.3619,-5.3751,-5.3822,-5.3698,-5.3708,-5.4101,-5.4108,-5.4115,-5.4183,0,0,0,0,0,0,-5.3096,-5.3133,-5.3191,-5.3271,-5.3307,-5.3497,-5.3426,-5.3434,-5.349,-5.3484,-5.3567,-5.3577,-5.3595,-5.3736,-5.3762,-5.3834,-5.3716,-5.4095,-5.4104,-5.4113,-5.4175,-5.4192,-5.4206,0,0,0,0,0,-5.3085,-5.3203,-5.3194,-5.3224,-5.338,-5.3501,-5.3521,-5.354,-5.3495,-5.3554,-5.3593,-5.3574,-5.381,-5.375,-5.3779,-5.3856,-5.409,-5.4101,-5.4112,-5.4168,-5.4188,-5.4206,0,0,0,0,0,0,-5.3129,-5.3214,-5.3205,-5.3353,-5.342,-5.3496,-5.357,-5.3561,-5.3641,-5.3633,-5.3652,-5.3671,-5.3805,-5.3843,-5.3774,-5.4006,-5.3944,-5.3961,-5.3976,-5.3997,-5.4012,-5.4,-5.3725,0,0,0,0,0,-5.3156,-5.3247,-5.3316,-5.344,-5.3474,-5.3517,-5.357,-5.3578,-5.3648,-5.3677,-5.3726,-5.3794,-5.3883,-5.3942,-5.4028,-5.418,-5.4198,-5.4247,-5.4263,-5.4276,-5.429,-5.4374,-5.4397,-5.4153,-5.4153,-5.4153,0,0,-5.3212,-5.327,-5.3326,-5.345,-5.3503,-5.3597,-5.3541,-5.3642,-5.3712,-5.3692,-5.382,-5.3858,-5.3936,-5.4079,-5.4144,-5.4115,-5.4362,-5.4289,-5.4299,-5.4307,-5.4388,-5.4411,-5.4431,-5.416,-5.4159,-5.4158,0,0,-5.3363,-5.3416,-5.3526,-5.358,-5.3662,-5.3689,-5.3716,-5.3794,-5.3819,-5.3948,-5.3935,-5.4018,-5.4171,-5.4228,-5.4276,-5.445,-5.4435,-5.4477,-5.4559,-5.4641,-5.466,-5.4677,-5.474,-5.4762,-5.4491,-5.4491,-5.4491,0,-5.3423,-5.3565,-5.3583,-5.3687,-5.3742,-5.3728,-5.384,-5.3891,-5.3996,-5.4035,-5.4,-5.4194,-5.4245,-5.4401,-5.4444,-5.4483,-5.4514,-5.4468,-5.4656,-5.4673,-5.469,-5.4749,-5.4773,-5.4496,-5.4495,-5.4495,-5.4495,0,-5.3635,-5.3733,-5.3812,-5.3915,-5.3978,-5.4085,-5.4119,-5.4181,-5.4185,-5.4216,-5.4348,-5.4409,-5.4507,-5.4544,-5.4548,-5.4702,-5.4681,-5.4651,-5.4589,-5.4717,-5.4774,-5.4797,-5.4503,-5.4501,-5.45,-5.4498,0,0,-5.3818,-5.393,-5.3959,-5.4006,-5.4095,-5.4171,-5.4277,-5.4374,-5.4427,-5.45,-5.459,-5.4721,-5.4694,-5.4749,-5.4759,-5.4831,-5.4965,-5.4792,-5.4794,-5.4823,-5.5139,-5.5161,-5.5187,-5.4956,-5.496,-5.4964,-5.5133,0,-5.3978,-5.4166,-5.4186,-5.4354,-5.4445,-5.4435,-5.4527,-5.4592,-5.4624,-5.4705,-5.474,-5.4833,-5.479,-5.4824,-5.4894,-5.4934,-5.5029,-5.4922,-5.5039,-5.5043,-5.5021,-5.5217,-5.5241,-5.5397,-5.5155,-5.5158,-5.5161,0,-5.419,-5.4271,-5.4448,-5.4525,-5.4564,-5.4647,-5.4738,-5.4816,-5.4889,-5.4907,-5.497,-5.497,-5.508,-5.5013,-5.5164,-5.5091,-5.514,-5.5167,-5.5173,-5.5185,-5.511,-5.5235,-5.5447,-5.5471,-5.5196,-5.5193,-5.5191,0,-5.4307,-5.4459,-5.4585,-5.4626,-5.4719,-5.4777,-5.4819,-5.4888,-5.4945,-5.5024,-5.5061,-5.5152,-5.5202,-5.5271,-5.5297,-5.5246,-5.5447,-5.5382,-5.5465,-5.5464,-5.5508,-5.5505,-5.5732,-5.5539,-5.5538,-5.5538,-5.5537,0,-5.4484,-5.4593,-5.4639,-5.4717,-5.4839,-5.486,-5.498,-5.5019,-5.508,-5.5165,-5.5161,-5.524,-5.5268,-5.5352,-5.5373,-5.5495,-5.5517,-5.5535,-5.5539,-5.5536,-5.5534,-5.5568,-5.5558,-5.5544,-5.5543,-5.5542,-5.554,0,-5.4636,-5.4671,-5.4808,-5.4885,-5.4907,-5.4993,-5.5059,-5.5134,-5.5165,-5.5272,-5.5299,-5.5347,-5.5446,-5.5478,-5.5597,-5.5611,-5.5754,-5.5748,-5.5729,-5.573,-5.5811,-5.5804,-5.6069,-5.6105,-5.5888,-5.589,-5.5891,0,-5.4747,-5.4831,-5.4917,-5.4974,-5.5018,-5.5109,-5.5168,-5.5192,-5.5254,-5.5344,-5.5408,-5.5506,-5.5586,-5.5744,-5.579,-5.5881,-5.5878,-5.5965,-5.5891,-5.5886,-5.588,-5.5875,-5.5884,-5.5978,-5.5981,-5.5982,-5.5984,0,-5.494,-5.4954,-5.5039,-5.5131,-5.5201,-5.5274,-5.5345,-5.5391,-5.5426,-5.5495,-5.5597,-5.5659,-5.5781,-5.5879,-5.5972,-5.6014,-5.6005,-5.6007,-5.6031,-5.6029,-5.6015,-5.6024,-5.5767,-5.6001,-5.5999,-5.5998,-5.5997,-5.5996,-5.5075,-5.515,-5.5223,-5.5318,-5.5374,-5.544,-5.5514,-5.5555,-5.564,-5.5742,-5.5751,-5.5861,-5.5932,-5.6057,-5.6103,-5.6189,-5.6165,-5.6199,-5.6208,-5.6217,-5.6224,-5.6001,-5.6206,-5.6206,-5.6205,-5.6205,-5.6205,0,-5.5269,-5.5316,-5.5403,-5.5503,-5.5578,-5.5564,-5.5641,-5.5705,-5.5802,-5.5869,-5.5948,-5.6065,-5.616,-5.6213,-5.6308,-5.6367,-5.6365,-5.6391,-5.6387,-5.6397,-5.624,-5.621,-5.639,-5.639,-5.639,-5.639,-5.639,-5.639,-5.5379,-5.5505,-5.5527,-5.568,-5.5725,-5.5834,-5.5879,-5.594,-5.5994,-5.6126,-5.6205,-5.6239,-5.6301,-5.64,-5.6487,-5.65,-5.6535,-5.6564,-5.6574,-5.6427,-5.6408,-5.639,-5.6362,-5.6571,-5.6571,-5.6724,-5.6726,-5.6727]}]]